STARLINK-34836 (65399 NORAD) Tracking and Keplerian Element Data

This shows tracking and keplerian element data for the satellite.

Feedback or suggestion? Click here.




ElementValue
Catalog65399
NameSTARLINK-34836
Epoch Orbit1830
Epoch Day354.16670747
Epoch Year2025
RAAN223.1448
Inclination97.6043
Eccentricity0.0002494
Argument of Perigee85.047
Mean Anonmoly275.1042
Mean Motion15.05651561
Decay Rate2.213E-05
L11 65399U 25191W 25354.16670747 .00002213 00000+0 15754-3 0 9999
L22 65399 97.6043 223.1448 0002494 85.0470 275.1042 15.05651561 18308



Live tracking and technical data element details for STARLINK-34836 (NORAD 65399). STARLINK-34836 can be tracked NOW for your location showing map with azimuth and elevation plus other details from your city location.







IsCatalogInMostPopularTable: catalog: 65399, numindb: 9
Update: records affected: 1



GetName: 65399 STARLINK-34836

Hit Count: updated at: Tue, 21 Apr 2026 21:33:55 GMT